Sheboygan, WI

12:07 AM CDT on July 22, 2017 (GMT -0500)
Sheboygan County Memorial

Weather History for KSBM - November, 2012

Change the Weather History Date:

Sunday, November 11, 2012

  Actual Average Record
Temperature  
Mean Temperature 53 °F -  
Max Temperature 64 °F 44 °F 71 °F (1964)
Min Temperature 41 °F 31 °F 14 °F (1986)
Degree Days  
Heating Degree Days 12    
Growing Degree Days 3 (Base 50)    
Moisture  
Dew Point 49 °F    
Average Humidity 77    
Maximum Humidity 94    
Minimum Humidity 54    
Precipitation  
Precipitation 0.32 in - - ()
Sea Level Pressure  
Sea Level Pressure 29.77 in    
Wind  
Wind Speed 14 mph (SSW)    
Max Wind Speed 21 mph    
Max Gust Speed 29 mph    
Visibility 9 miles    
Events Rain    
Averages and records for this station are not official NWS values.
T = Trace of Precipitation, MM = Missing Value Source: NWS Daily Summary

Daily Weather History Graph

Daily Weather History Graph

Search for Another Location

Airport or City:

Trip Planner

Search our weather history database for the weather conditions in past years. The results will help you decide how hot, cold, wet, or windy it might be!

Date:

Astronomy

Nov. 11, 2012 Rise Set
Actual Time 6:41 AM CST 4:29 PM CST
Civil Twilight 6:10 AM CST 4:59 PM CST
Nautical Twilight 5:35 AM CST 5:34 PM CST
Astronomical Twilight 5:02 AM CST 6:08 PM CST
Moon 3:50 AM CST (11/11) 2:55 PM CST (11/11)
Length of Visible Light 10h 49m
Length of Day
9h 48m
Waning Crescent, 7% of the Moon is Illuminated
Nov 11
Waning Crescent
Nov 13
New
Nov 20
First Quarter
Nov 28
Full
Dec 6
Last Quarter

Hourly Weather History & Observations

Time (CST) Temp. Windchill Dew Point Humidity Pressure Visibility Wind Dir Wind Speed Gust Speed Precip Events Conditions
12:53 AM 64.9 °F - 48.0 °F 54% 29.80 in 10.0 mi SSW 16.1 mph - N/A   Partly Cloudy
1:53 AM 64.9 °F - 48.0 °F 54% 29.81 in 10.0 mi SSW 16.1 mph - N/A   Clear
2:53 AM 64.0 °F - 48.0 °F 56% 29.84 in 10.0 mi SSW 20.7 mph 28.8 mph N/A   Clear
3:53 AM 64.0 °F - 48.9 °F 58% 29.84 in 10.0 mi SSW 16.1 mph 26.5 mph N/A   Clear
4:53 AM 62.1 °F - 48.9 °F 62% 29.84 in 10.0 mi SSW 13.8 mph - N/A   Clear
5:53 AM 61.0 °F - 48.9 °F 64% 29.83 in 10.0 mi South 10.4 mph - N/A   Clear
6:53 AM 57.0 °F - 48.9 °F 74% 29.81 in 10.0 mi SSE 9.2 mph - N/A   Clear
8:53 AM 62.1 °F - 51.1 °F 67% 29.80 in 10.0 mi South 15.0 mph 23.0 mph N/A   Clear
9:53 AM 63.0 °F - 51.1 °F 65% 29.79 in 10.0 mi South 16.1 mph 20.7 mph N/A   Mostly Cloudy
10:53 AM 60.1 °F - 50.0 °F 69% 29.78 in 10.0 mi SSE 9.2 mph - N/A   Overcast
11:53 AM 61.0 °F - 50.0 °F 67% 29.74 in 10.0 mi SSE 12.7 mph - N/A   Partly Cloudy
12:53 PM 62.1 °F - 51.1 °F 67% 29.71 in 10.0 mi SSE 13.8 mph 24.2 mph N/A   Scattered Clouds
1:53 PM 60.1 °F - 51.1 °F 72% 29.70 in 10.0 mi SSE 13.8 mph - N/A   Mostly Cloudy
2:53 PM 59.0 °F - 50.0 °F 72% 29.67 in 10.0 mi South 13.8 mph - N/A   Overcast
3:53 PM 59.0 °F - 51.1 °F 75% 29.66 in 10.0 mi SSE 15.0 mph 20.7 mph 0.00 in Rain Light Rain
4:53 PM 57.9 °F - 53.1 °F 84% 29.69 in 5.0 mi SSW 18.4 mph - 0.04 in Rain Light Rain
4:57 PM 57.2 °F - 53.6 °F 88% 29.71 in 2.5 mi WNW 15.0 mph - 0.05 in Rain Heavy Rain
5:02 PM 55.4 °F - 51.8 °F 88% 29.71 in 2.5 mi WNW 13.8 mph 23.0 mph 0.07 in Rain Rain
5:04 PM 55.4 °F - 50.0 °F 82% 29.71 in 3.0 mi West 12.7 mph 20.7 mph 0.07 in Rain Light Rain
5:53 PM 54.0 °F - 51.1 °F 90% 29.73 in 7.0 mi WSW 6.9 mph - 0.11 in Rain Light Rain
7:34 PM 53.6 °F - 51.8 °F 94% 29.76 in 9.0 mi South 10.4 mph - 0.02 in Rain Light Rain
7:53 PM 54.0 °F - 51.1 °F 90% 29.75 in 8.0 mi South 10.4 mph - 0.03 in Rain Light Rain
8:07 PM 53.6 °F - 51.8 °F 94% 29.76 in 7.0 mi South 12.7 mph - 0.02 in Rain Light Rain
8:37 PM 53.6 °F - 51.8 °F 94% 29.76 in 10.0 mi South 12.7 mph - 0.04 in Rain Light Rain
8:50 PM 53.6 °F - 51.8 °F 94% 29.75 in 10.0 mi South 9.2 mph - 0.04 in Rain Light Rain
8:53 PM 54.0 °F - 51.1 °F 90% 29.76 in 10.0 mi South 11.5 mph - 0.04 in Rain Light Rain
9:42 PM 51.8 °F - 48.2 °F 88% 29.79 in 6.0 mi West 20.7 mph - 0.06 in Rain Light Rain
9:53 PM 50.0 °F - 45.0 °F 83% 29.79 in 10.0 mi West 13.8 mph - 0.07 in Rain Light Rain
10:24 PM 46.4 °F 39.5 °F 42.8 °F 87% 29.80 in 10.0 mi West 17.3 mph 25.3 mph 0.02 in Rain Light Rain
10:53 PM 44.1 °F 37.7 °F 39.9 °F 85% 29.83 in 10.0 mi West 12.7 mph - 0.02 in   Overcast
11:00 PM 44.6 °F 37.4 °F 39.2 °F 81% 29.84 in 10.0 mi West 16.1 mph 21.9 mph 0.00 in Rain Light Rain
11:36 PM 42.8 °F 35.4 °F 37.4 °F 81% 29.84 in 10.0 mi West 15.0 mph - 0.01 in Rain Light Rain
11:53 PM 41.0 °F 32.8 °F 37.0 °F 86% 29.86 in 10.0 mi West 16.1 mph 21.9 mph 0.01 in   Overcast